This is the latest recevied weather packets stored in our database for station/object PA3CPS. If no packets are shown the sender has not sent any weather packets the latest 10 day(s).
| Time | Temp. | Humidity | Pressure | Rain* | Wind** | Luminosity | Snow |
|---|---|---|---|---|---|---|---|
| 1777540744 | 16.11° C | 31% | 1029.1 hPa | 0 mm | - | 742 W/m² | - |
| 1777540445 | 15.56° C | 31% | 1028.9 hPa | 0 mm | - | 726 W/m² | - |
| 1777540144 | 15.56° C | 32% | 1029.1 hPa | 0 mm | - | 700 W/m² | - |
| 1777539845 | 15.56° C | 32% | 1029.4 hPa | 0 mm | - | 707 W/m² | - |
| 1777539545 | 15° C | 31% | 1029.4 hPa | 0 mm | - | 708 W/m² | - |
| 1777539240 | 15.56° C | 32% | 1029.4 hPa | 0 mm | - | 664 W/m² | - |
| 1777538936 | 15° C | 33% | 1029.3 hPa | 0 mm | - | 684 W/m² | - |
| 1777538634 | 14.44° C | 38% | 1029.3 hPa | 0 mm | - | 673 W/m² | - |
| 1777538332 | 14.44° C | 35% | 1029.3 hPa | 0 mm | - | 668 W/m² | - |
| 1777538032 | 14.44° C | 35% | 1029.4 hPa | 0 mm | - | 645 W/m² | - |
| 1777537731 | 13.89° C | 36% | 1029.3 hPa | 0 mm | - | 638 W/m² | - |
| 1777537428 | 14.44° C | 36% | 1029.4 hPa | 0 mm | - | 626 W/m² | - |
| 1777537127 | 13.89° C | 37% | 1029.5 hPa | 0 mm | - | 608 W/m² | - |
| 1777536824 | 13.89° C | 37% | 1029.4 hPa | 0 mm | - | 596 W/m² | - |
| 1777536522 | 13.89° C | 40% | 1029.3 hPa | 0 mm | - | 592 W/m² | - |
| 1777536220 | 13.33° C | 39% | 1029.4 hPa | 0 mm | - | 584 W/m² | - |
| 1777535917 | 13.33° C | 39% | 1029.4 hPa | 0 mm | - | 547 W/m² | - |
| 1777535616 | 13.33° C | 39% | 1029.5 hPa | 0 mm | - | 441 W/m² | - |
| 1777535316 | 13.33° C | 41% | 1029.6 hPa | 0 mm | - | 545 W/m² | - |
| 1777535012 | 12.78° C | 43% | 1029.7 hPa | 0 mm | - | 513 W/m² | - |
| 1777534712 | 12.78° C | 43% | 1029.7 hPa | 0 mm | - | 512 W/m² | - |
| 1777534412 | 12.22° C | 43% | 1029.8 hPa | 0 mm | - | 501 W/m² | - |
| 1777534113 | 12.22° C | 45% | 1029.9 hPa | 0 mm | - | 489 W/m² | - |
| 1777533811 | 12.22° C | 44% | 1029.9 hPa | 0 mm | - | 473 W/m² | - |
| 1777533511 | 11.67° C | 44% | 1029.7 hPa | 0 mm | - | 455 W/m² | - |
* Rain latest hour (hover to see other rain measurements)
** Current wind speed in m/s (hover to see current wind gust speed)